Date String (YYYY-MM-DD hh:mm:ss) UTC,Instrument flags,Ambient pressure (hPa),Sample flow (lpm),Bypass flow (lpm),Sample temperature (°C),Ambient temperature (°C),ASC tube jacket temperature (°C),LED temperature (°C),Box temperature (°C),Sample RH (%),Span deviation,Mass concentration (μg/m³),Mass concentration (μg/m³),Mass concentration (μg/m³)
DateTimeUTC,F1_M11,P_M11,Q1_M11,Q2_M11,T1_M11,T2_M11,T3_M11,T4_M11,T5_M11,U1_M11,ZSPAN_M11,X0_M11,X2_M11,X1_M11
2023-01-20 15:00:00,,0827.9,5.01,0.00,22.7,21.6,00.0,31.4,24.5,08.6,0000.0,0009.28,0004.97,0004.55
2023-01-20 15:01:00,,0828.0,5.01,0.00,22.7,21.4,00.0,31.4,24.4,08.5,0000.0,0009.13,0004.93,0004.55
2023-01-20 15:02:00,,0828.0,5.00,0.00,22.7,21.3,00.0,31.4,24.4,08.5,0000.0,0008.67,0004.95,0004.56
2023-01-20 15:03:00,,0828.0,5.00,0.00,22.7,21.3,00.0,31.4,24.4,08.4,0000.0,0008.83,0004.97,0004.58
2023-01-20 15:04:00,,0828.0,5.00,0.00,22.6,21.3,00.0,31.4,24.4,08.4,0000.0,0009.20,0004.99,0004.60
2023-01-20 15:05:00,,0828.0,5.00,0.00,22.6,21.2,00.0,31.4,24.3,08.4,0000.0,0009.29,0004.97,0004.61
2023-01-20 15:06:00,,0828.0,5.00,0.00,22.6,21.2,00.0,31.4,24.3,08.4,0000.0,0008.96,0004.96,0004.63
2023-01-20 15:07:00,,0828.0,4.98,0.00,22.6,21.2,00.0,31.4,24.3,08.5,0000.0,0009.04,0005.00,0004.66
2023-01-20 15:08:00,,0828.0,5.01,0.00,22.6,21.1,00.0,31.4,24.3,08.5,0000.0,0008.95,0004.97,0004.68
2023-01-20 15:09:00,,0828.0,5.02,0.00,22.6,21.2,00.0,31.4,24.3,08.5,0000.0,0009.24,0004.94,0004.65
2023-01-20 15:10:00,,0828.0,5.00,0.00,22.6,21.1,00.0,31.4,24.3,08.6,0000.0,0009.13,0004.99,0004.69
2023-01-20 15:11:00,,0828.0,5.00,0.00,22.6,20.9,00.0,31.4,24.2,08.8,0000.0,0009.42,0005.15,0004.81
2023-01-20 15:12:00,,0828.0,5.01,0.00,22.5,20.9,00.0,31.4,24.2,08.9,0000.0,0009.80,0005.36,0004.96
2023-01-20 15:13:00,,0828.0,4.99,0.00,22.6,21.6,00.0,31.4,24.3,09.0,0000.0,0009.95,0005.47,0005.06
2023-01-20 15:14:00,,0828.1,5.00,0.00,22.6,22.7,00.0,31.4,24.6,08.9,0000.0,0009.83,0005.56,0005.15
2023-01-20 15:15:00,,0828.1,4.99,0.00,22.7,23.0,00.0,31.4,24.7,08.8,0000.0,0010.52,0005.65,0005.24
2023-01-20 15:16:00,,0828.1,5.00,0.00,22.8,22.6,00.0,31.4,24.7,08.8,0000.0,0010.71,0005.76,0005.31
2023-01-20 15:17:00,,0828.1,5.01,0.00,22.8,22.2,00.0,31.4,24.6,08.8,0000.0,0011.20,0005.86,0005.37
2023-01-20 15:18:00,,0828.1,4.99,0.00,22.8,22.0,00.0,31.5,24.6,08.8,0000.0,0011.28,0005.94,0005.43
2023-01-20 15:19:00,,0828.1,5.01,0.00,22.8,21.8,00.0,31.5,24.5,08.9,0000.0,0012.11,0006.08,0005.50
2023-01-20 15:20:00,,0828.1,4.99,0.00,22.7,21.6,00.0,31.5,24.5,08.9,0000.0,0012.16,0006.17,0005.57
2023-01-20 15:21:00,,0828.1,5.00,0.00,22.7,21.5,00.0,31.5,24.5,08.8,0000.0,0012.15,0006.22,0005.62
2023-01-20 15:22:00,,0828.2,5.01,0.00,22.7,21.5,00.0,31.5,24.5,08.8,0000.0,0012.07,0006.20,0005.59
2023-01-20 15:23:00,,0828.4,5.02,0.00,22.7,21.5,00.0,31.5,24.5,08.8,0000.0,0011.82,0006.09,0005.53
2023-01-20 15:24:00,,0828.2,5.00,0.00,22.7,21.5,00.0,31.5,24.5,08.8,0000.0,0011.71,0006.08,0005.51
2023-01-20 15:25:00,,0828.2,4.99,0.00,22.7,21.5,00.0,31.5,24.5,08.8,0000.0,0012.02,0006.13,0005.51
2023-01-20 15:26:00,,0828.2,5.00,0.00,22.7,21.5,00.0,31.5,24.5,08.8,0000.0,0011.32,0006.10,0005.50
2023-01-20 15:27:00,,0828.2,4.99,0.00,22.7,21.5,00.0,31.5,24.5,08.8,0000.0,0010.91,0006.07,0005.51
2023-01-20 15:28:00,,0828.2,5.01,0.00,22.7,21.5,00.0,31.5,24.5,08.7,0000.0,0010.53,0006.03,0005.51
2023-01-20 15:29:00,,0828.2,5.01,0.00,22.7,21.5,00.0,31.5,24.5,08.7,0000.0,0010.53,0006.04,0005.52
2023-01-20 15:30:00,,0828.4,5.01,0.00,22.7,21.5,00.0,31.5,24.5,08.6,0000.0,0010.07,0006.04,0005.51
2023-01-20 15:31:00,,0828.2,5.00,0.00,22.8,21.5,00.0,31.5,24.5,08.6,0000.0,0009.88,0006.03,0005.50
2023-01-20 15:32:00,,0828.2,5.00,0.00,22.7,21.5,00.0,31.5,24.5,08.5,0000.0,0009.87,0006.02,0005.48
2023-01-20 15:33:00,,0828.2,5.00,0.00,22.7,21.5,00.0,31.5,24.5,08.5,0000.0,0010.00,0006.02,0005.47
2023-01-20 15:34:00,,0828.2,4.99,0.00,22.7,21.4,00.0,31.5,24.5,08.5,0000.0,0010.22,0006.08,0005.47
2023-01-20 15:35:00,,0828.2,5.00,0.00,22.7,21.4,00.0,31.5,24.5,08.5,0000.0,0010.84,0006.03,0005.45
2023-01-20 15:36:00,,0828.2,4.99,0.00,22.7,21.4,00.0,31.5,24.5,08.5,0000.0,0010.58,0006.00,0005.43
2023-01-20 15:37:00,,0828.3,5.00,0.00,22.7,21.3,00.0,31.5,24.5,08.5,0000.0,0010.83,0006.05,0005.43
2023-01-20 15:38:00,,0828.3,5.00,0.00,22.7,21.3,00.0,31.5,24.4,08.4,0000.0,0010.96,0006.05,0005.43
2023-01-20 15:39:00,,0828.3,5.01,0.00,22.7,21.3,00.0,31.5,24.4,08.4,0000.0,0011.02,0006.06,0005.43
2023-01-20 15:40:00,,0828.3,5.00,0.00,22.7,21.3,00.0,31.5,24.4,08.4,0000.0,0011.15,0006.06,0005.43
2023-01-20 15:41:00,,0828.3,4.99,0.00,22.7,21.3,00.0,31.5,24.4,08.4,0000.0,0011.91,0006.04,0005.42
2023-01-20 15:42:00,,0828.3,5.00,0.00,22.7,21.2,00.0,31.5,24.4,08.4,0000.0,0011.75,0006.00,0005.42
2023-01-20 15:43:00,,0828.3,5.00,0.00,22.7,21.2,00.0,31.5,24.4,08.4,0000.0,0011.74,0006.02,0005.44
2023-01-20 15:44:00,,0828.3,5.00,0.00,22.7,21.2,00.0,31.5,24.4,08.5,0000.0,0011.73,0006.05,0005.48
2023-01-20 15:45:00,,0828.3,5.00,0.00,22.7,21.2,00.0,31.5,24.4,08.5,0000.0,0012.16,0006.04,0005.51
2023-01-20 15:46:00,,0828.3,5.00,0.00,22.6,21.2,00.0,31.4,24.4,08.6,0000.0,0011.80,0006.06,0005.53
2023-01-20 15:47:00,,0828.3,5.00,0.00,22.7,21.7,00.0,31.4,24.5,08.6,0000.0,0011.64,0006.11,0005.60
2023-01-20 15:48:00,,0828.3,5.01,0.00,22.8,22.7,00.0,31.4,24.7,08.6,0000.0,0011.95,0006.15,0005.67
2023-01-20 15:49:00,,0828.3,4.99,0.00,22.9,23.0,00.0,31.5,24.9,08.5,0000.0,0012.56,0006.25,0005.76
2023-01-20 15:50:00,,0828.4,5.00,0.00,22.9,22.7,00.0,31.5,24.9,08.4,0000.0,0012.82,0006.36,0005.86
2023-01-20 15:51:00,,0828.3,5.00,0.00,22.9,22.3,00.0,31.5,24.8,08.4,0000.0,0012.84,0006.44,0005.95
2023-01-20 15:52:00,,0828.3,5.00,0.00,22.9,22.1,00.0,31.5,24.7,08.4,0000.0,0012.19,0006.48,0006.03
2023-01-20 15:53:00,,0828.3,5.01,0.00,22.9,21.9,00.0,31.5,24.7,08.4,0000.0,0012.04,0006.58,0006.11
2023-01-20 15:54:00,,0828.4,5.00,0.00,22.9,21.7,00.0,31.6,24.7,08.4,0000.0,0012.19,0006.67,0006.18
2023-01-20 15:55:00,,0828.3,4.99,0.00,22.9,21.7,00.0,31.6,24.6,08.4,0000.0,0012.21,0006.70,0006.23
2023-01-20 15:56:00,,0828.3,4.99,0.00,22.9,21.6,00.0,31.6,24.6,08.3,0000.0,0011.65,0006.73,0006.27
2023-01-20 15:57:00,,0828.4,5.01,0.00,22.8,21.6,00.0,31.6,24.6,08.6,0000.0,0011.64,0006.82,0006.36
2023-01-20 15:58:00,,0828.4,5.01,0.00,22.8,21.5,00.0,31.6,24.6,09.1,0000.0,0011.88,0007.05,0006.58
2023-01-20 15:59:00,,0828.4,5.01,0.00,22.8,21.5,00.0,31.6,24.6,09.1,0000.0,0011.86,0007.35,0006.83
